SCP
0 0 0 0 0 0 0 0 0 0 0 0 0 0 0 1 1 1 2 1 1 0 0 0 0 0 1 1 0 0 0 1 1 1 1 1 1 1 1 1 1 1 1 1
0 0 0 0 0 0 0 0 0 0 0 0 0 0 0 0 1 1 1 1 1 0 0 0 0 0 0 0 0 0 0 0 0 1 1 1 1 1 1 1 1 1 1 1
0 0 0 0 0 0 0 0 0 0 0 0 0 0 0 0 0 0 0 0 0 0 0 0 0 0 0 0 0 0 0 0 0 0 0 1 1 1 1 1 1 1 0 0
0 0 0 0 0 0 0 0 0 0 0 0 0 0 0 0 0 0 0 0 0 0 0 0 0 0 0 0 0 0 0 0 0 0 0 0 0 0 0 0 0 0 0 0
0 0 0 0 0 0 0 0 0 0 0 0 0 0 0 0 0 0 0 0 0 0 0 0 0 0 0 0 0 0 0 0 0 0 0 0 0 0 0 0 0 0 0 0
0 0 0 0 0 0 0 0 0 0 0 0 0 0 0 0 0 0 0 0 0 0 0 0 0 0 0 0 0 0 0 0 0 0 0 0 0 0 0 0 0 0 0 0
0 0 0 0 0 0 0 0 0 0 0 0 0 0 0 0 0 0 -0 -0 0 0 0 0 0 0 0 0 0 0 0 0 0 0 0 0 0 0 0 0 0 0 0 0
0 0 0 0 0 0 0 0 0 0 0 0 0 0 0 0 0 0 0 -0 -0 0 0 0 0 0 0 0 0 0 0 0 0 0 0 0 0 0 0 0 0 0 0 0
0 0 0 0 0 0 0 0 0 0 0 0 0 0 0 0 0 0 0 0 0 0 0 0 0 0 0 0 0 0 0 0 0 0 0 0 0 0 0 0 0 0 0 0
0 0 0 0 0 0 0 0 0 0 0 0 0 0 0 0 0 0 0 0 0 0 0 0 0 0 0 0 0 0 0 0 0 0 0 0 0 -0 0 0 0 0 0 0
0 0 0 0 0 0 0 0 0 0 0 0 0 0 0 0 0 0 0 0 0 0 0 0 0 0 0 0 0 0 0 0 0 0 0 -0 -0 -0 0 0 0 0 0 0
0 0 0 0 0 0 0 0 0 0 0 0 0 0 0 0 0 0 0 0 0 0 0 0 0 0 0 0 0 0 0 0 0 0 0 0 0 0 0 0 0 0 0 0
0 0 0 0 0 0 0 0 0 0 0 0 0 0 0 0 0 0 0 0 0 0 0 0 0 0 0 0 0 0 0 -0 -0 0 0 0 0 0 -0 -0 0 0 0 0
0 0 0 0 0 0 0 0 0 0 0 0 0 0 0 0 0 0 0 0 0 0 0 0 0 0 0 0 0 0 0 0 0 0 0 0 0 0 -0 -0 0 0 0 0
0 0 0 0 0 0 0 0 0 0 0 0 0 0 0 0 0 0 0 0 0 0 0 0 0 0 0 0 0 0 0 0 0 0 0 0 0 0 0 0 0 0 0 0
0 0 0 0 0 0 0 0 0 0 0 0 0 0 0 0 0 0 0 0 0 0 0 0 0 0 0 0 0 0 0 0 0 0 0 0 0 0 0 0 0 0 0 0
0 0 0 0 0 0 0 0 0 0 0 0 0 0 0 0 0 0 0 0 0 0 0 0 0 0 0 0 0 0 0 0 0 0 0 0 0 0 0 0 0 0 0 0
0 0 0 0 0 0 0 0 0 0 0 0 0 0 0 0 0 0 0 0 0 0 0 0 0 0 0 0 0 0 0 0 0 0 0 0 0 0 0 0 0 0 0 0
0 0 0 0 0 0 0 0 0 0 0 0 0 0 0 0 0 0 0 0 0 0 0 0 0 0 0 0 0 0 0 0 0 0 0 0 0 0 0 0 0 0 0 0
0 0 0 0 0 0 0 0 0 0 0 0 0 0 0 0 0 0 0 0 0 0 0 0 0 0 0 0 0 0 0 0 0 0 0 0 0 0 0 0 0 0 0 0
0 0 0 0 0 0 0 0 0 0 0 0 0 0 0 0 0 0 0 0 0 0 0 0 0 0 0 0 0 0 0 0 0 0 0 0 0 0 0 0 0 0 0 0
0 0 0 0 0 0 0 0 0 0 0 0 0 0 0 0 0 0 0 0 0 0 0 0 0 0 0 0 0 0 0 0 0 0 0 0 0 0 0 0 0 0 0 0
0 0 0 0 0 0 0 0 0 0 0 0 0 0 0 0 0 0 0 0 0 0 0 0 0 0 0 0 0 0 0 0 0 0 -0 -0 0 0 0 0 0 0 0 0
0 0 0 0 0 0 0 0 0 0 0 0 0 0 0 0 0 0 0 0 0 0 0 0 0 0 0 0 0 0 0 0 0 0 0 -0 -0 0 0 0 0 0 0 0
0 0 0 0 0 0 0 0 0 0 0 0 0 0 0 0 0 0 0 0 0 0 0 0 0 0 0 0 0 0 0 0 0 0 0 0 -0 0 0 0 0 0 0 0
0 0 0 0 0 0 0 0 0 0 0 0 0 0 0 0 0 0 0 0 0 0 0 0 0 0 0 0 0 0 0 0 0 0 0 0 0 0 -0 0 0 0 0 0
Wind_Speed
2 2 3 4 4 2 2 1 2 3 4 4 4 6 10 11 11 11 11 12 13 12 11 15 15 13 12 10 6 4 3 4 5 6 5 6 6 4 4 5 6 6 6 6
4 2 4 3 2 2 2 3 3 3 4 4 4 4 6 10 9 9 10 8 7 7 7 4 5 10 14 12 9 3 1 1 3 4 5 5 4 2 2 2 3 4 4 4
1 4 2 3 4 5 3 3 1 3 6 3 3 3 6 5 6 8 8 5 4 1 4 6 8 5 7 11 7 3 2 6 6 6 4 1 1 2 2 2 1 2 3 2
2 4 3 3 2 3 2 1 1 2 3 3 3 3 3 4 5 5 6 6 5 3 7 8 11 9 10 11 7 5 6 11 11 6 4 5 3 5 5 2 2 1 3 4
4 3 4 3 1 1 2 2 2 0 1 2 2 2 5 4 5 8 7 6 6 6 7 9 8 7 8 7 5 5 7 7 5 5 3 5 8 10 4 2 2 1 3 4
3 2 1 1 2 2 2 3 3 3 3 2 2 1 6 3 3 5 7 8 7 8 10 11 9 7 5 6 5 5 7 8 6 2 4 3 7 10 6 4 2 2 2 3
4 4 2 1 1 2 5 6 5 5 3 4 2 2 7 4 6 5 6 8 8 9 10 11 12 11 9 6 6 7 6 7 9 6 6 7 8 9 7 5 3 2 2 1
1 5 2 0 2 1 3 5 4 2 3 5 4 6 5 4 3 4 6 8 9 10 9 10 11 10 12 12 10 6 4 4 4 1 4 5 7 6 4 2 3 3 2 2
3 4 2 2 2 3 2 2 3 4 0 3 6 6 7 3 6 8 8 8 9 10 8 8 10 10 10 12 11 9 5 4 4 5 6 6 6 6 5 6 6 4 3 2
4 3 2 2 3 5 3 4 3 1 1 4 6 5 6 5 9 9 9 8 9 8 8 8 6 8 8 8 7 5 7 7 6 9 10 10 9 8 7 5 4 4 3 3
3 4 4 1 3 4 3 2 3 3 2 3 5 8 8 8 8 7 9 8 8 9 7 6 6 7 7 8 7 3 2 3 6 7 6 7 9 6 4 4 4 4 3 3
4 4 4 4 2 2 4 4 7 5 4 3 3 11 6 7 6 6 9 8 8 8 7 5 5 5 6 8 10 8 4 0 3 5 8 9 9 6 4 4 4 3 4 4
4 4 1 6 4 1 1 3 4 4 3 5 6 12 5 4 5 6 7 8 8 8 6 3 2 3 5 4 3 2 2 2 4 6 7 7 8 6 4 5 5 5 6 6
5 5 6 8 7 3 3 4 4 4 4 6 10 13 14 10 7 9 7 8 7 7 5 1 2 4 4 2 3 7 2 2 2 4 5 5 6 6 4 6 7 7 7 6
4 3 4 5 5 4 6 7 7 8 9 10 11 11 16 11 6 6 6 6 6 6 4 5 4 3 3 2 3 8 1 3 4 3 3 3 3 4 4 6 8 7 6 6
2 0 1 3 5 6 8 10 8 9 7 10 8 13 14 8 4 6 7 6 6 4 5 7 6 6 6 6 5 3 3 2 2 2 2 3 3 3 4 5 7 6 6 5
2 4 3 4 2 3 8 8 6 6 8 8 10 14 4 5 7 9 8 6 6 5 5 7 6 6 6 5 5 2 0 1 2 3 2 2 4 3 5 7 8 6 5 5
5 5 4 2 1 5 9 3 5 6 9 11 11 10 7 7 5 6 7 6 7 6 6 7 6 6 5 3 2 2 1 1 3 4 4 3 3 5 5 7 7 6 5 6
4 5 2 2 4 9 7 7 4 5 13 9 9 13 5 2 2 8 9 9 10 7 6 6 6 5 4 3 2 1 2 1 3 3 3 3 3 5 6 4 3 4 5 5
4 3 2 2 3 8 7 6 3 3 10 6 7 10 4 6 2 11 8 5 6 7 6 6 6 5 4 3 2 2 3 4 4 3 3 3 4 4 4 4 1 1 5 5
4 3 2 5 6 10 7 3 2 3 11 4 4 7 8 8 12 6 1 1 3 5 7 7 7 5 5 4 3 4 4 4 4 3 2 3 3 3 3 3 2 4 7 8
3 4 4 3 5 8 3 1 4 8 5 5 6 9 10 12 10 5 4 4 4 6 7 8 7 6 4 4 4 4 4 3 3 3 3 3 4 4 3 3 3 5 9 8
4 6 4 8 10 10 8 9 11 7 9 13 12 14 11 10 10 8 6 6 7 8 8 8 8 7 5 4 6 6 5 4 4 5 4 3 3 3 3 3 3 5 7 7
5 5 7 9 16 14 13 15 14 13 11 13 12 11 8 12 12 8 7 6 7 8 8 7 7 7 6 7 6 5 4 5 5 5 4 3 3 3 3 4 3 4 6 5
7 5 7 9 15 15 17 13 13 12 9 10 11 9 11 13 13 11 8 9 9 9 7 8 8 9 9 8 7 7 7 8 7 7 5 4 4 4 4 3 2 3 4 6
4 4 6 16 19 15 15 17 14 10 11 12 11 9 11 13 15 10 9 10 9 9 8 9 10 10 9 8 8 7 8 10 9 7 6 5 5 4 3 4 5 7 3 6
Wind_Direction
355 26 269 241 224 213 214 244 287 291 315 353 10 344 345 27 52 33 21 22 33 44 32 28 13 16 19 9 360 314 240 215 193 192 193 203 211 199 197 208 196 189 191 191
18 295 251 201 243 94 86 60 9 312 323 2 355 1 357 46 52 41 32 34 45 22 1 5 346 357 6 356 355 343 244 271 274 243 216 206 173 188 205 223 220 187 171 153
138 293 333 116 56 52 58 83 4 306 325 354 2 357 9 25 31 36 36 47 95 176 271 282 281 222 246 263 275 285 294 270 261 275 244 228 153 179 111 104 41 359 350 4
319 340 38 68 61 61 357 234 292 321 7 320 21 288 313 326 328 352 12 32 35 296 258 242 259 270 252 245 246 243 227 237 229 199 254 232 120 65 72 90 105 44 337 305
294 343 5 16 35 68 272 350 351 332 142 271 311 250 275 340 328 332 342 357 352 330 303 283 266 275 289 284 273 264 260 254 237 133 238 237 106 94 95 116 84 26 290 281
268 289 263 198 66 47 356 29 32 41 59 274 264 291 278 245 242 296 317 323 323 318 311 305 301 305 316 313 317 312 299 287 274 126 136 149 139 134 152 150 180 230 243 252
330 312 289 184 83 22 48 48 4 353 359 263 271 259 253 222 215 223 258 283 297 301 302 303 307 311 306 291 275 263 260 271 259 215 168 170 151 137 145 153 165 207 212 169
261 291 282 68 121 124 94 121 152 234 270 292 289 254 258 247 225 238 251 263 277 271 265 268 278 295 302 298 279 263 253 266 278 304 82 63 66 76 86 147 179 185 160 135
177 266 302 25 88 100 147 165 150 138 251 289 282 298 301 273 269 267 262 261 267 271 265 264 268 266 269 271 269 265 230 205 156 136 125 115 119 134 163 185 180 163 152 137
185 260 275 148 88 45 104 134 133 132 222 280 281 265 245 266 265 265 263 262 280 287 292 298 309 302 288 272 268 247 183 170 171 170 174 160 156 149 158 171 147 119 117 111
147 203 253 238 200 193 142 141 125 149 166 208 275 270 227 230 244 260 273 277 286 293 296 306 318 324 336 346 347 3 72 155 189 179 169 155 127 131 151 141 122 116 106 104
173 150 221 244 254 189 161 173 156 174 217 178 222 270 255 255 274 264 272 284 289 290 293 308 323 359 32 47 43 29 31 8 218 177 155 143 121 124 111 89 75 73 77 80
174 143 322 321 326 293 181 159 143 133 154 192 207 261 277 271 280 270 271 283 286 296 301 323 2 48 43 63 73 351 275 235 226 160 130 127 129 127 119 89 68 66 75 69
121 162 182 216 232 222 226 200 169 156 195 226 230 260 283 279 270 286 282 275 287 296 282 137 94 73 47 30 339 275 261 333 297 139 127 119 129 136 144 111 99 95 98 100
107 181 206 236 233 217 241 231 189 201 215 228 251 231 256 260 250 253 254 272 296 297 249 180 165 133 107 228 223 259 353 358 359 58 117 150 144 143 147 117 112 107 98 98
79 164 176 269 257 242 260 261 227 229 232 243 263 268 258 254 236 252 254 263 274 269 226 189 187 189 184 199 224 275 21 1 14 58 110 177 163 151 122 123 116 103 96 85
172 168 189 260 286 322 272 248 224 219 217 213 232 251 239 240 233 243 250 251 252 237 207 193 194 195 199 201 202 206 75 327 102 104 116 140 141 128 103 122 126 126 111 97
157 145 164 222 55 240 252 251 218 222 250 224 246 256 218 227 240 241 237 235 245 233 220 216 206 196 193 194 212 276 337 67 98 91 90 91 89 101 111 120 133 140 123 107
147 146 161 181 214 265 283 262 210 220 269 240 231 257 230 185 318 280 238 218 229 209 205 201 191 181 183 207 236 268 278 201 153 119 96 97 104 91 90 103 140 141 120 105
76 78 134 208 245 263 249 251 164 122 281 241 217 249 187 132 254 270 261 216 220 191 186 182 179 170 181 214 232 241 228 193 170 156 128 118 111 115 137 142 140 96 109 110
3 344 246 231 248 270 266 290 121 205 268 280 232 241 166 187 222 239 249 209 218 180 181 167 165 177 196 203 185 200 199 192 167 145 124 119 133 129 141 130 94 106 112 106
279 262 267 266 276 278 267 349 222 246 268 271 267 246 206 222 239 242 241 230 204 179 177 170 168 187 198 197 186 191 196 191 156 144 157 166 147 134 134 118 102 113 115 113
231 208 223 228 241 252 255 258 260 240 253 275 272 263 231 226 234 230 229 226 211 191 179 175 176 178 193 200 193 190 198 167 153 160 172 161 118 112 106 110 123 124 135 140
256 224 236 265 264 261 275 278 273 269 255 261 254 251 223 224 235 218 209 214 199 191 183 174 171 176 197 204 201 205 179 157 152 157 158 143 139 140 111 105 128 141 153 149
252 232 243 258 280 289 286 267 259 265 260 259 264 245 233 232 234 215 196 201 197 191 181 173 181 188 207 201 198 192 175 163 163 162 161 153 139 135 115 100 120 166 167 172
234 236 275 287 288 290 279 276 270 253 262 266 256 252 240 225 232 208 198 196 187 188 178 181 190 196 209 199 196 183 171 166 165 167 170 163 147 133 130 128 88 48 91 138